Location: Oberwangen
(47.4286°N, 8.9679°E)
Time: 21:50:33
(UTC+00:00)

Meteor 1-27 - Pass Details

Date: 20 June 2021
Orbit: 838 x 892 km, 81.2° (Epoch: 23 July)

Event Time Altitude Azimuth Distance (km) Brightness Sun altitude
Rises 23:16:33 0° 350° (N) 3,405 9.0 -19.1°
Reaches altitude 10° 23:18:59 10° 352° (N) 2,465 7.9 -19.1°
Maximum altitude 23:24:33 73° 78° (ENE) 882 4.3 -19.1°
Enters shadow 23:27:13 32° 155° (SSE) 1,410 4.9 -19.1°
